Regional Weather Roundup
Issued by NWS

Home | Current Version | Previous Version | Graphics & Text | Print | Product List | Glossary On
Versions: 1 2 3 4 5 6 7 8 9 10 11 12 13 14 15 16 17 18 19 20 21 22 23 24 25 26 27 28 29 30 31 32 33 34 35 36 37 38 39 40 41 42 43 44 45 46 47 48 49 50
000
ASUS43 KOAX 271802
RWRNE

WEATHER ROUNDUP FOR NEBRASKA
NATIONAL WEATHER SERVICE OMAHA NE
100 PM CDT MON APR 27 2015

NOTES: SATELLITE DATA IS BEING USED TO AUGMENT CLOUD COVER ABOVE
       12000 FEET.
       "FAIR" INDICATES FEW OR NO CLOUDS BELOW 12,000 FEET WITH NO
       SIGNIFICANT WEATHER AND/OR OBSTRUCTIONS TO VISIBILITY.

  * THESE STATIONS DO NOT REPORT WEATHER SUCH AS RAIN...SNOW OR FOG.

NEZ001>004-019>022-054>056-271900-
NEBRASKA PANHANDLE

CITY           SKY/WX    TMP DP  RH WIND       PRES   REMARKS
SCOTTSBLUFF    CLOUDY    50  40  68 W5        30.29S
6HR MIN TEMP:  44; 6HR MAX TEMP:  51;

ALLIANCE       MOSUNNY   54  36  50 CALM      30.26S
6HR MIN TEMP:  43; 6HR MAX TEMP:  55;

CHADRON        PTSUNNY   53  45  74 NE10      30.29S
6HR MIN TEMP:  43; 6HR MAX TEMP:  55;

KIMBALL        CLOUDY    45  39  79 E3        30.28S
SIDNEY         CLOUDY    51  37  58 VRB5      30.28S
6HR MIN TEMP:  42; 6HR MAX TEMP:  51;

$$

NEZ057>060-069>072-079>082-271900-
SOUTHWEST NEBRASKA

CITY           SKY/WX    TMP DP  RH WIND       PRES   REMARKS
NORTH PLATTE   PTSUNNY   60  32  34 VRB6      30.24F
6HR MIN TEMP:  37; 6HR MAX TEMP:  60;

IMPERIAL       PTSUNNY   56  32  40 NE10      30.24F
6HR MIN TEMP:  41; 6HR MAX TEMP:  56;

MCCOOK         PTSUNNY   58  33  39 E16       30.22F
6HR MIN TEMP:  38; 6HR MAX TEMP:  58;

$$

NEZ005>010-023>029-035>040-094-271900-
NORTH CENTRAL NEBRASKA

CITY           SKY/WX    TMP DP  RH WIND       PRES   REMARKS
VALENTINE      MOSUNNY   65  31  28 N8        30.23F
6HR MIN TEMP:  30; 6HR MAX TEMP:  65;

AINSWORTH      MOSUNNY   64  32  30 N7        30.23S
BROKEN BOW     MOSUNNY   64  34  32 N12       30.22S
6HR MIN TEMP:  31; 6HR MAX TEMP:  65;

ORD            MOSUNNY   65  31  28 VRB6G17   30.20S
6HR MIN TEMP:  31; 6HR MAX TEMP:  65;

$$

NEZ041-046>049-061>064-073>077-083>087-271900-
SOUTH CENTRAL NEBRASKA

CITY           SKY/WX    TMP DP  RH WIND       PRES   REMARKS
GRAND ISLAND   MOSUNNY   62  32  32 E10       30.22F
6HR MIN TEMP:  34; 6HR MAX TEMP:  62;

AURORA         MOSUNNY   61  31  33 NE14G20   30.20F
HASTINGS       PTSUNNY   60  36  40 NE12      30.20F
6HR MIN TEMP:  35; 6HR MAX TEMP:  61;

KEARNEY *      PTSUNNY   59  36  41 N8G18     30.22S
$$

NEZ011>018-030>034-042>045-271900-
NORTHEAST NEBRASKA

CITY           SKY/WX    TMP DP  RH WIND       PRES   REMARKS
NORFOLK        SUNNY     66  31  27 N8        30.20F
6HR MIN TEMP:  34; 6HR MAX TEMP:  66;

BLAIR          SUNNY     62  30  29 NE12      30.19F
COLUMBUS *     SUNNY     64  34  32 E10       30.22F
TEKAMAH        SUNNY     66  28  24 VRB5      30.20F
6HR MIN TEMP:  39; 6HR MAX TEMP:  66;

$$

NEZ050>053-065>068-078-088>093-271900-
SOUTHEAST NEBRASKA

CITY           SKY/WX    TMP DP  RH WIND       PRES   REMARKS
LINCOLN        MOSUNNY   64  32  30 E9G18     30.20F
6HR MIN TEMP:  34; 6HR MAX TEMP:  64;

OMAHA EPPLEY   MOSUNNY   64  30  27 N12G20    30.18F
6HR MIN TEMP:  38; 6HR MAX TEMP:  65;

FALLS CITY     MOSUNNY   63  36  36 E15G22    30.15F
6HR MIN TEMP:  43; 6HR MAX TEMP:  63;

PLATTSMOUTH    SUNNY     64  23  21 E14       30.18F
$$

NEZ044-045-051>053-067-271900-
OMAHA AREA

CITY           SKY/WX    TMP DP  RH WIND       PRES   REMARKS
OMAHA EPPLEY   MOSUNNY   64  30  27 N12G20    30.18F
6HR MIN TEMP:  38; 6HR MAX TEMP:  65;

BLAIR          SUNNY     62  30  29 NE12      30.19F
OFFUTT AFB     SUNNY     64  32  30 NE13      30.17F
PLATTSMOUTH    SUNNY     64  23  21 E14       30.18F
$$



USA.gov is the U.S. government's official web portal to all federal, state and local government web resources and services.